Year,Month,Day,Hour,Minute,Value (Times are PST for temperature in C)
2018,02,17,10,17,7.00
2018,02,17,10,18,7.00
2018,02,17,10,19,6.90
2018,02,17,10,20,6.90
2018,02,17,10,21,6.80
2018,02,17,10,22,6.80
2018,02,17,10,23,6.80
2018,02,17,10,24,6.90
2018,02,17,10,25,6.90
2018,02,17,10,26,6.80
2018,02,17,10,27,6.80
2018,02,17,10,28,6.80
2018,02,17,10,29,6.80
2018,02,17,10,30,6.80
2018,02,17,10,31,6.80
2018,02,17,10,32,6.70
2018,02,17,10,33,6.70
2018,02,17,10,34,6.70
2018,02,17,10,35,6.70
2018,02,17,10,36,6.70
2018,02,17,10,37,6.60
2018,02,17,10,38,6.60
2018,02,17,10,39,6.60
2018,02,17,10,40,6.50
2018,02,17,10,41,6.50
2018,02,17,10,42,6.50
2018,02,17,10,43,6.50
2018,02,17,10,44,6.50
2018,02,17,10,45,6.60
2018,02,17,10,46,6.60
2018,02,17,10,47,6.60
2018,02,17,10,48,6.70
2018,02,17,10,49,6.70
2018,02,17,10,50,6.70
2018,02,17,10,51,6.70
2018,02,17,10,52,6.70
2018,02,17,10,53,6.60
2018,02,17,10,54,6.60
2018,02,17,10,55,6.60
2018,02,17,10,56,6.60
2018,02,17,10,57,6.60
2018,02,17,10,58,6.60
2018,02,17,10,59,6.60
2018,02,17,11,00,6.60
2018,02,17,11,01,6.60
2018,02,17,11,02,6.70
2018,02,17,11,03,6.70
2018,02,17,11,04,6.70
2018,02,17,11,05,6.80
2018,02,17,11,06,6.80
2018,02,17,11,07,6.80
2018,02,17,11,08,6.90
2018,02,17,11,09,7.00
2018,02,17,11,10,7.00
2018,02,17,11,11,7.00
2018,02,17,11,12,7.00
2018,02,17,11,13,7.00
2018,02,17,11,14,7.00
2018,02,17,11,15,7.00
2018,02,17,11,16,7.00
2018,02,17,11,17,7.00
2018,02,17,11,18,7.00
2018,02,17,11,19,7.00
2018,02,17,11,20,7.00
2018,02,17,11,21,7.00
2018,02,17,11,22,7.00
2018,02,17,11,23,7.00
2018,02,17,11,24,7.10
2018,02,17,11,25,7.20
2018,02,17,11,26,7.20
2018,02,17,11,27,7.20
2018,02,17,11,28,7.20
2018,02,17,11,29,7.20
2018,02,17,11,30,7.30
2018,02,17,11,31,7.30
2018,02,17,11,32,7.30
2018,02,17,11,33,7.30
2018,02,17,11,34,7.30
2018,02,17,11,35,7.30
2018,02,17,11,36,7.30
2018,02,17,11,37,7.20
2018,02,17,11,38,7.00
2018,02,17,11,39,6.80
2018,02,17,11,40,6.50
2018,02,17,11,41,6.30
2018,02,17,11,42,6.20
2018,02,17,11,43,6.10
2018,02,17,11,44,6.10
2018,02,17,11,45,6.10
2018,02,17,11,46,6.10
2018,02,17,11,47,6.10
2018,02,17,11,48,6.10
2018,02,17,11,49,6.00
2018,02,17,11,50,5.90
2018,02,17,11,51,5.80
2018,02,17,11,52,5.60
2018,02,17,11,53,5.60
2018,02,17,11,54,5.50
2018,02,17,11,55,5.50
2018,02,17,11,56,5.40
2018,02,17,11,57,5.40
2018,02,17,11,58,5.50
2018,02,17,11,59,5.50
2018,02,17,12,00,5.50
2018,02,17,12,01,5.60
2018,02,17,12,02,5.60
2018,02,17,12,03,5.60
2018,02,17,12,04,5.60
2018,02,17,12,05,5.70
2018,02,17,12,06,5.70
2018,02,17,12,07,5.80
2018,02,17,12,08,5.80
2018,02,17,12,09,5.80
2018,02,17,12,10,5.90
2018,02,17,12,11,5.90
2018,02,17,12,12,6.00
2018,02,17,12,13,6.00
2018,02,17,12,14,6.10
2018,02,17,12,15,6.10
2018,02,17,12,16,6.10
2018,02,17,12,17,6.20
2018,02,17,12,18,6.20
2018,02,17,12,19,6.30
2018,02,17,12,20,6.30
2018,02,17,12,21,6.40
2018,02,17,12,22,6.40
2018,02,17,12,23,6.50
2018,02,17,12,24,6.50
2018,02,17,12,25,6.60
2018,02,17,12,26,6.60
2018,02,17,12,27,6.60
2018,02,17,12,28,6.70
2018,02,17,12,29,6.70
2018,02,17,12,30,6.70
2018,02,17,12,31,6.80
2018,02,17,12,32,6.80
2018,02,17,12,33,6.80
2018,02,17,12,34,6.80
2018,02,17,12,35,6.80
2018,02,17,12,36,6.70
2018,02,17,12,37,6.70
2018,02,17,12,38,6.70
2018,02,17,12,39,6.80
2018,02,17,12,40,6.70
2018,02,17,12,41,6.70
2018,02,17,12,42,6.70
2018,02,17,12,43,6.60
2018,02,17,12,44,6.50
2018,02,17,12,45,6.40
2018,02,17,12,46,6.20
2018,02,17,12,47,6.10
2018,02,17,12,48,6.00
2018,02,17,12,49,5.90
2018,02,17,12,50,5.70
2018,02,17,12,51,5.40
2018,02,17,12,52,5.20
2018,02,17,12,53,5.00
2018,02,17,12,54,4.90
2018,02,17,12,55,4.80
2018,02,17,12,56,4.80
2018,02,17,12,57,4.90
2018,02,17,12,58,4.90
2018,02,17,12,59,5.00
2018,02,17,13,00,5.00
2018,02,17,13,01,5.10
2018,02,17,13,02,5.10
2018,02,17,13,03,5.20
2018,02,17,13,04,5.20
2018,02,17,13,05,5.20
2018,02,17,13,06,5.20
2018,02,17,13,07,5.20
2018,02,17,13,08,5.20
2018,02,17,13,09,5.20
2018,02,17,13,10,5.20
2018,02,17,13,11,5.30
2018,02,17,13,12,5.30
2018,02,17,13,13,5.40
2018,02,17,13,14,5.40
2018,02,17,13,15,5.40
2018,02,17,13,16,5.40
2018,02,17,13,17,5.30
2018,02,17,13,18,5.20
2018,02,17,13,19,5.20
2018,02,17,13,20,5.10
2018,02,17,13,21,4.90
2018,02,17,13,22,4.90
2018,02,17,13,23,4.80
2018,02,17,13,24,4.80
2018,02,17,13,25,4.80
2018,02,17,13,26,4.80
2018,02,17,13,27,4.80
2018,02,17,13,28,4.90
2018,02,17,13,29,5.00
2018,02,17,13,30,5.10
2018,02,17,13,31,5.20
2018,02,17,13,32,5.30
2018,02,17,13,33,5.40
2018,02,17,13,34,5.40
2018,02,17,13,35,5.50
2018,02,17,13,36,5.50
2018,02,17,13,37,5.50
2018,02,17,13,38,5.50
2018,02,17,13,39,5.60
2018,02,17,13,40,5.60
2018,02,17,13,41,5.70
2018,02,17,13,42,5.70
2018,02,17,13,43,5.80
2018,02,17,13,44,5.80
2018,02,17,13,45,5.90
2018,02,17,13,46,6.00
2018,02,17,13,47,6.10
2018,02,17,13,48,6.10
2018,02,17,13,49,6.20
2018,02,17,13,50,6.20
2018,02,17,13,51,6.20
2018,02,17,13,52,6.20
2018,02,17,13,53,6.10
2018,02,17,13,54,6.10
2018,02,17,13,55,6.10
2018,02,17,13,56,6.00
2018,02,17,13,57,6.00
2018,02,17,13,58,5.90
2018,02,17,13,59,5.80
2018,02,17,14,00,5.80
2018,02,17,14,01,5.70
2018,02,17,14,02,5.70
2018,02,17,14,03,5.70
2018,02,17,14,04,5.60
2018,02,17,14,05,5.60
2018,02,17,14,06,5.60
2018,02,17,14,07,5.60
2018,02,17,14,08,5.70
2018,02,17,14,09,5.70
2018,02,17,14,10,5.70
2018,02,17,14,11,5.70
2018,02,17,14,12,5.70
2018,02,17,14,13,5.80
2018,02,17,14,14,5.80
2018,02,17,14,15,5.90
2018,02,17,14,16,5.90
2018,02,17,14,17,6.00
2018,02,17,14,18,6.00
2018,02,17,14,19,6.00
2018,02,17,14,20,6.10
2018,02,17,14,21,6.10
2018,02,17,14,22,6.10
2018,02,17,14,23,6.10
2018,02,17,14,24,6.10
2018,02,17,14,25,6.20
2018,02,17,14,26,6.20
2018,02,17,14,27,6.20
2018,02,17,14,28,6.20
2018,02,17,14,29,6.20
2018,02,17,14,30,6.20
2018,02,17,14,31,6.30
2018,02,17,14,32,6.30
2018,02,17,14,33,6.30
2018,02,17,14,34,6.30
2018,02,17,14,35,6.30
2018,02,17,14,36,6.40
2018,02,17,14,37,6.40
2018,02,17,14,38,6.40
2018,02,17,14,39,6.50
2018,02,17,14,40,6.50
2018,02,17,14,41,6.50
2018,02,17,14,42,6.60
2018,02,17,14,43,6.60
2018,02,17,14,44,6.60
2018,02,17,14,45,6.50
2018,02,17,14,46,6.50
2018,02,17,14,47,6.50
2018,02,17,14,48,6.60
2018,02,17,14,49,6.60
2018,02,17,14,50,6.60
2018,02,17,14,51,6.60
2018,02,17,14,52,6.60
2018,02,17,14,53,6.60
2018,02,17,14,54,6.60
2018,02,17,14,55,6.70
2018,02,17,14,56,6.70
2018,02,17,14,57,6.80
2018,02,17,14,58,6.80
2018,02,17,14,59,6.80
2018,02,17,15,00,6.80
2018,02,17,15,01,6.80
2018,02,17,15,02,6.80
2018,02,17,15,03,6.80
2018,02,17,15,04,6.80
2018,02,17,15,05,6.80
2018,02,17,15,06,6.80
2018,02,17,15,07,6.80
2018,02,17,15,08,6.80
2018,02,17,15,09,6.80
2018,02,17,15,10,6.80
2018,02,17,15,11,6.70
2018,02,17,15,12,6.70
2018,02,17,15,13,6.70
2018,02,17,15,14,6.70
2018,02,17,15,15,6.60
2018,02,17,15,16,6.60
2018,02,17,15,17,6.60
2018,02,17,15,18,6.60
2018,02,17,15,19,6.50
2018,02,17,15,20,6.50
2018,02,17,15,21,6.40
2018,02,17,15,22,6.40
2018,02,17,15,23,6.40
2018,02,17,15,24,6.40
2018,02,17,15,25,6.40
2018,02,17,15,26,6.40
2018,02,17,15,27,6.40
2018,02,17,15,28,6.40
2018,02,17,15,29,6.40
2018,02,17,15,30,6.40
2018,02,17,15,31,6.40
2018,02,17,15,32,6.40
2018,02,17,15,33,6.40
2018,02,17,15,34,6.40
2018,02,17,15,35,6.40
2018,02,17,15,36,6.40
2018,02,17,15,37,6.40
2018,02,17,15,38,6.40
2018,02,17,15,39,6.40
2018,02,17,15,40,6.40
2018,02,17,15,41,6.30
2018,02,17,15,42,6.30
2018,02,17,15,43,6.40
2018,02,17,15,44,6.40
2018,02,17,15,45,6.40
2018,02,17,15,46,6.40
2018,02,17,15,47,6.40
2018,02,17,15,48,6.40
2018,02,17,15,49,6.40
2018,02,17,15,50,6.40
2018,02,17,15,51,6.40
2018,02,17,15,52,6.40
2018,02,17,15,53,6.40
2018,02,17,15,54,6.40
2018,02,17,15,55,6.40
2018,02,17,15,56,6.40
2018,02,17,15,57,6.40
2018,02,17,15,58,6.40
2018,02,17,15,59,6.40
2018,02,17,16,00,6.40
2018,02,17,16,01,6.40
2018,02,17,16,02,6.40
2018,02,17,16,03,6.40
2018,02,17,16,04,6.40
2018,02,17,16,05,6.40
2018,02,17,16,06,6.40
2018,02,17,16,07,6.40
2018,02,17,16,08,6.40
2018,02,17,16,09,6.40
2018,02,17,16,10,6.40
2018,02,17,16,11,6.30
2018,02,17,16,12,6.40
2018,02,17,16,13,6.40
2018,02,17,16,14,6.30
2018,02,17,16,15,6.30
2018,02,17,16,16,6.30
2018,02,17,16,17,6.30
2018,02,17,16,18,6.30
2018,02,17,16,19,6.30
2018,02,17,16,20,6.30
2018,02,17,16,21,6.30
2018,02,17,16,22,6.30
2018,02,17,16,23,6.30
2018,02,17,16,24,6.30
2018,02,17,16,25,6.30
2018,02,17,16,26,6.30
2018,02,17,16,27,6.30
2018,02,17,16,28,6.30
2018,02,17,16,29,6.30
2018,02,17,16,30,6.30
2018,02,17,16,31,6.30
2018,02,17,16,32,6.30
2018,02,17,16,33,6.30
2018,02,17,16,34,6.20
2018,02,17,16,35,6.20
2018,02,17,16,36,6.20
2018,02,17,16,37,6.20
2018,02,17,16,38,6.20
2018,02,17,16,39,6.20
2018,02,17,16,40,6.20
2018,02,17,16,41,6.10
2018,02,17,16,42,6.10
2018,02,17,16,43,6.10
2018,02,17,16,44,6.10
2018,02,17,16,45,6.10
2018,02,17,16,46,6.10
2018,02,17,16,47,6.10
2018,02,17,16,48,6.10
2018,02,17,16,49,6.10
2018,02,17,16,50,6.10
2018,02,17,16,51,6.10
2018,02,17,16,52,6.10
2018,02,17,16,53,6.10
2018,02,17,16,54,6.10
2018,02,17,16,55,6.10
2018,02,17,16,56,6.10
2018,02,17,16,57,6.10
2018,02,17,16,58,6.10
2018,02,17,16,59,6.10
2018,02,17,17,00,6.10
2018,02,17,17,01,6.10
2018,02,17,17,02,6.10
2018,02,17,17,03,6.10
2018,02,17,17,04,6.10
2018,02,17,17,05,6.10
2018,02,17,17,06,6.10
2018,02,17,17,07,6.10
2018,02,17,17,08,6.10
2018,02,17,17,09,6.10
2018,02,17,17,10,6.10
2018,02,17,17,11,6.10
2018,02,17,17,12,6.10
2018,02,17,17,13,6.10
2018,02,17,17,14,6.10
2018,02,17,17,15,6.10
2018,02,17,17,16,6.10
2018,02,17,17,17,6.10
2018,02,17,17,18,6.10
2018,02,17,17,19,6.10
2018,02,17,17,20,6.10
2018,02,17,17,21,6.10
2018,02,17,17,22,6.10
2018,02,17,17,23,6.10
2018,02,17,17,24,6.10
2018,02,17,17,25,6.10
2018,02,17,17,26,6.10
2018,02,17,17,27,6.10
2018,02,17,17,28,6.10
2018,02,17,17,29,6.10
2018,02,17,17,30,6.10
2018,02,17,17,31,6.10
2018,02,17,17,32,6.10
2018,02,17,17,33,6.10
2018,02,17,17,34,6.10
2018,02,17,17,35,6.10
2018,02,17,17,36,6.10
2018,02,17,17,37,6.10
2018,02,17,17,38,6.10
2018,02,17,17,39,6.20
2018,02,17,17,40,6.20
2018,02,17,17,41,6.20
2018,02,17,17,42,6.20
2018,02,17,17,43,6.20
2018,02,17,17,44,6.20
2018,02,17,17,45,6.20
2018,02,17,17,46,6.20
2018,02,17,17,47,6.20
2018,02,17,17,48,6.20
2018,02,17,17,49,6.20
2018,02,17,17,50,6.20
2018,02,17,17,51,6.10
2018,02,17,17,52,6.10
2018,02,17,17,53,6.00
2018,02,17,17,54,6.00
2018,02,17,17,55,6.00
2018,02,17,17,56,6.00
2018,02,17,17,57,6.00
2018,02,17,17,58,6.00
2018,02,17,17,59,6.00
2018,02,17,18,00,6.00
2018,02,17,18,01,6.00
2018,02,17,18,02,6.00
2018,02,17,18,03,6.10
2018,02,17,18,04,6.10
2018,02,17,18,05,6.10
2018,02,17,18,06,6.10
2018,02,17,18,07,6.10
2018,02,17,18,08,6.20
2018,02,17,18,09,6.20
2018,02,17,18,10,6.20
2018,02,17,18,11,6.20
2018,02,17,18,12,6.20
2018,02,17,18,13,6.20
2018,02,17,18,14,6.20
2018,02,17,18,15,6.10
2018,02,17,18,16,6.10
2018,02,17,18,17,6.10
2018,02,17,18,18,6.10
2018,02,17,18,19,6.10
2018,02,17,18,20,6.20
2018,02,17,18,21,6.20
2018,02,17,18,22,6.10
2018,02,17,18,23,6.10
2018,02,17,18,24,6.10
2018,02,17,18,25,6.00
2018,02,17,18,26,6.00
2018,02,17,18,27,5.90
2018,02,17,18,28,5.90
2018,02,17,18,29,5.90
2018,02,17,18,30,5.80
2018,02,17,18,31,5.80
2018,02,17,18,32,5.80
2018,02,17,18,33,5.80
2018,02,17,18,34,5.80
2018,02,17,18,35,5.80
2018,02,17,18,36,5.80
2018,02,17,18,37,5.80
2018,02,17,18,38,5.80
2018,02,17,18,39,5.80
2018,02,17,18,40,5.80
2018,02,17,18,41,5.80
2018,02,17,18,42,5.80
2018,02,17,18,43,5.80
2018,02,17,18,44,5.70
2018,02,17,18,45,5.60
2018,02,17,18,46,5.60
2018,02,17,18,47,5.50
2018,02,17,18,48,5.50
2018,02,17,18,49,5.50
2018,02,17,18,50,5.50
2018,02,17,18,51,5.50
2018,02,17,18,52,5.50
2018,02,17,18,53,5.50
2018,02,17,18,54,5.50
2018,02,17,18,55,5.50
2018,02,17,18,56,5.50
2018,02,17,18,57,5.50
2018,02,17,18,58,5.50
2018,02,17,18,59,5.50
2018,02,17,19,00,5.50
2018,02,17,19,01,5.50
2018,02,17,19,02,5.50
2018,02,17,19,03,5.40
2018,02,17,19,04,5.40
2018,02,17,19,05,5.40
2018,02,17,19,06,5.40
2018,02,17,19,07,5.40
2018,02,17,19,08,5.40
2018,02,17,19,09,5.40
2018,02,17,19,10,5.50
2018,02,17,19,11,5.40
2018,02,17,19,12,5.40
2018,02,17,19,13,5.40
2018,02,17,19,14,5.30
2018,02,17,19,15,5.30
2018,02,17,19,16,5.30
2018,02,17,19,17,5.30
2018,02,17,19,18,5.30
2018,02,17,19,19,5.30
2018,02,17,19,20,5.30
2018,02,17,19,21,5.30
2018,02,17,19,22,5.30
2018,02,17,19,23,5.30
